This is the latest recevied weather packets stored in our database for station/object W9KHP-1. If no packets are shown the sender has not sent any weather packets the latest 10 day(s).
| Time | Temp. | Humidity | Pressure | Rain* | Wind** | Luminosity | Snow |
|---|---|---|---|---|---|---|---|
| 1777695335 | 7.78° C | 84% | 1019.6 hPa | 0 mm | - | 0 W/m² | - |
| 1777695031 | 7.78° C | 84% | 1019.8 hPa | 0 mm | - | 0 W/m² | - |
| 1777694728 | 8.33° C | 82% | 1020 hPa | 0 mm | - | 0 W/m² | - |
| 1777694425 | 8.33° C | 82% | 1020.1 hPa | 0 mm | - | 0 W/m² | - |
| 1777694121 | 8.33° C | 82% | 1020 hPa | 0 mm | - | 0 W/m² | - |
| 1777693819 | 8.33° C | 81% | 1020 hPa | 0 mm | - | 0 W/m² | - |
| 1777693516 | 8.33° C | 79% | 1019.9 hPa | 0 mm | - | 0 W/m² | - |
| 1777693215 | 8.89° C | 82% | 1020 hPa | 0 mm | - | 0 W/m² | - |
| 1777692912 | 8.89° C | 77% | 1020.1 hPa | 0 mm | - | 0 W/m² | - |
| 1777692610 | 8.89° C | 75% | 1020.1 hPa | 0 mm | - | 0 W/m² | - |
| 1777692305 | 8.89° C | 77% | 1020.1 hPa | 0 mm | - | 0 W/m² | - |
| 1777692002 | 8.89° C | 77% | 1020.1 hPa | 0 mm | - | 0 W/m² | - |
| 1777691700 | 8.89° C | 78% | 1020.1 hPa | 0 mm | - | 0 W/m² | - |
| 1777691398 | 8.89° C | 76% | 1020.3 hPa | 0 mm | - | 0 W/m² | - |
| 1777691096 | 8.89° C | 77% | 1020.2 hPa | 0 mm | - | 0 W/m² | - |
| 1777690794 | 8.89° C | 76% | 1020.2 hPa | 0 mm | - | 0 W/m² | - |
| 1777690491 | 8.89° C | 74% | 1020.4 hPa | 0 mm | - | 0 W/m² | - |
| 1777690188 | 8.89° C | 75% | 1020.2 hPa | 0 mm | - | 0 W/m² | - |
| 1777689887 | 8.89° C | 75% | 1020.1 hPa | 0 mm | - | 0 W/m² | - |
| 1777689584 | 8.89° C | 75% | 1020.1 hPa | 0 mm | - | 0 W/m² | - |
| 1777689282 | 8.89° C | 75% | 1020 hPa | 0 mm | - | 0 W/m² | - |
| 1777688979 | 8.89° C | 74% | 1019.9 hPa | 0 mm | - | 0 W/m² | - |
| 1777688675 | 8.89° C | 75% | 1019.9 hPa | 0 mm | - | 0 W/m² | - |
| 1777688372 | 9.44° C | 74% | 1019.8 hPa | 0 mm | - | 0 W/m² | - |
| 1777688070 | 9.44° C | 75% | 1019.9 hPa | 0 mm | - | 0 W/m² | - |
* Rain latest hour (hover to see other rain measurements)
** Current wind speed in m/s (hover to see current wind gust speed)